User: anonymous   Login
Location: Jetmore Oil Field
(38.1181°N, 99.9337°W)
Time: 21:49:55
(UTC+00:00)
Language:

STARLINK-2726 - Orbit

View from above orbital plane
View from above orbital plane
View from above satellite
View from above satellite

Ground track
Ground track

The orbit data is extracted from the following two-line orbital elements,

1 48662C 21044AA  21266.31926601  .00010900  00000-0  73022-3 0  2666
2 48662  53.0536 221.6425 0001672  69.5346  41.1270 15.06391014    17
Epoch (UTC): 23 September 2021 07:39:44
Eccentricity: 0.0001672
inclination: 53.0536°
perigee height: 546 km
apogee height: 548 km
right ascension of ascending node: 221.6425°
argument of perigee: 69.5346°
revolutions per day: 15.06391014
mean anomaly at epoch: 41.1270°
orbit number at epoch: 1

The dashed part of the orbit path shows where the satellite is in the earth's shadow,  

DLR